Regional Weather Roundup
Issued by NWS Albany, NY

Home | Current Version | Previous Version | Text Only | Print | Product List | Glossary On
Versions: 1 2 3 4 5 6 7 8 9 10 11 12 13 14 15 16 17 18 19 20 21 22 23 24 25 26 27 28 29 30 31 32 33 34 35 36 37 38 39 40 41 42 43 44 45 46 47 48 49 50
000
ASUS41 KALY 070410
RWRALY

NEW YORK STATE HOURLY WEATHER ROUNDUP
NATIONAL WEATHER SERVICE ALBANY NY
1200 AM EDT TUE JUL 07 2015

NOTE: "FAIR" INDICATES FEW OR NO CLOUDS BELOW 12,000 FEET WITH NO
SIGNIFICANT WEATHER AND/OR NO OBSTRUCTIONS TO VISIBILITY.

NYZ032-033-038>043-046>054-057>066-NYZ062>081-070500-
EAST


CITY           SKY/WX    TMP DP  RH WIND       PRES   REMARKS
ALBANY         PTCLDY    75  66  73 S10       30.06S
GLENS FALLS    CLEAR     67  62  84 CALM      30.06S
POUGHKEEPSIE   CLOUDY    72  66  81 CALM      30.08F
NEWBURGH       PTCLDY    73  68  83 VRB6      30.11S
MONTGOMERY     CLOUDY    70  67  90 CALM      30.09S
WHITE PLAINS   CLOUDY    72  65  78 SE5       30.10F
ISLIP          CLOUDY    74  66  76 S12       30.08F
NEW YORK CITY  CLOUDY    75  67  76 S10       30.08F
CENTRAL PARK   CLOUDY    75  66  73 CALM      30.12F
$$

NYZ005>009-017-018-044>046-055-056-070500-
CENTRAL


CITY           SKY/WX    TMP DP  RH WIND       PRES   REMARKS
FULTON         PTCLDY    73  66  78 SE5       29.99F
SYRACUSE       PTCLDY    73  67  81 E6        30.00F
ROME           CLEAR     73  65  75 E7        30.04S
ELMIRA         MOCLDY    69  68  96 N3        30.02F
BINGHAMTON     PTCLDY    69  65  86 S8        30.07F
MONTICELLO     CLOUDY    68  66  94 S5        30.13F
$$

NYZ026>034-041>043-070500-
NORTH


CITY           SKY/WX    TMP DP  RH WIND       PRES   REMARKS
WATERTOWN      CLEAR     73  65  75 S6        29.98S
FORT DRUM      NOT AVBL
MASSENA        MOCLDY    64  62  93 CALM      29.99F
SARANAC LAKE   CLEAR     56  55  97 CALM      30.07S
PLATTSBURGH    CLEAR     63  61  93 CALM      30.02S
$$

NYZ001>004-010>016-019>021-070500-
WEST


CITY           SKY/WX    TMP DP  RH WIND       PRES   REMARKS
NIAGARA FALLS  CLEAR     71  66  84 S6        29.95F
BUFFALO        PTCLDY    72  68  87 S6        29.97F
DUNKIRK        CLEAR     71  67  87 SE3       29.96F
JAMESTOWN      PTCLDY    68  64  88 S5        30.04F
WELLSVILLE     PTCLDY    69  65  86 S6        30.07F
ROCHESTER      PTCLDY    75  67  76 S6        29.98F
PENN YAN       CLEAR     69  66  90 CALM      30.01F
$$

             KEY
       WCI = WIND CHILL INDEX
       VSB = VISIBILITY
       HX  = HEAT INDEX
$$


USA.gov is the U.S. government's official web portal to all federal, state and local government web resources and services.